GW5963 Weather Reports


Display with metric or nautical units.
time (UTC)temp
F
wind
direction
speed
MPH
gust
MPH
rain 1hr
in
rain 24hr
in
rain mn
in
humidity
%
barometer
mb
20260507213516 54 94 0.0 0.0 0.00 0.00 0.00 88 1011.4
20260507213017 55 94 0.0 0.0 0.00 0.00 0.00 87 1011.4
20260507212516 55 94 0.0 0.0 0.00 0.00 0.00 86 1011.5
20260507212028 55 94 0.0 0.0 0.00 0.00 0.00 85 1011.4
20260507211517 56 94 0.0 0.0 0.00 0.00 0.00 85 1011.4
20260507211027 56 94 0.0 0.0 0.00 0.00 0.00 85 1011.5
20260507210515 57 94 0.0 0.0 0.00 0.00 0.00 84 1011.5
20260507210016 57 94 0.0 0.0 0.00 0.00 0.00 84 1011.4
20260507205515 58 94 0.0 0.0 0.00 0.00 0.00 83 1011.3
20260507205016 58 94 0.0 1.0 0.00 0.00 0.00 83 1011.4
20260507204516 59 94 0.0 1.0 0.00 0.00 0.00 82 1011.4
20260507204026 59 96 0.0 1.0 0.00 0.00 0.00 81 1011.4
20260507203515 59 91 0.0 1.0 0.00 0.00 0.00 81 1011.4
20260507203015 59 91 0.0 2.0 0.00 0.00 0.00 80 1011.3
20260507202516 58 105 0.0 2.0 0.00 0.00 0.00 82 1011.2
20260507202016 58 106 0.0 2.0 0.00 0.00 0.00 83 1011.2
20260507201516 57 154 0.0 2.0 0.00 0.00 0.00 82 1011.2
20260507201016 57 106 0.0 0.0 0.00 0.00 0.00 81 1011.3
20260507200517 58 106 0.0 0.0 0.00 0.00 0.00 79 1011.1
20260507200027 58 107 0.0 0.0 0.00 0.00 0.00 79 1011.1
20260507195516 59 106 0.0 0.0 0.00 0.00 0.00 78 1011.0
20260507195027 59 107 0.0 0.0 0.00 0.00 0.00 78 1010.9
20260507194516 60 106 0.0 0.0 0.00 0.00 0.00 77 1010.8
20260507194016 60 106 0.0 0.0 0.00 0.00 0.00 77 1010.7
20260507193516 60 107 0.0 0.0 0.00 0.00 0.00 76 1010.7
20260507193027 61 107 0.0 0.0 0.00 0.00 0.00 76 1010.6
20260507192516 61 107 0.0 1.0 0.00 0.00 0.00 76 1010.5
20260507192016 62 106 0.0 1.0 0.00 0.00 0.00 75 1010.5
20260507191527 62 109 0.0 1.0 0.00 0.00 0.00 75 1010.5
20260507191015 62 96 0.0 0.0 0.00 0.00 0.00 74 1010.5
20260507190516 63 96 0.0 0.0 0.00 0.00 0.00 74 1010.6
20260507190027 64 96 0.0 0.0 0.00 0.00 0.00 72 1010.6
20260507185516 64 96 0.0 1.0 0.00 0.00 0.00 71 1010.6
20260507185016 65 96 0.0 1.0 0.00 0.00 0.00 69 1010.6
20260507184516 66 69 0.0 1.0 0.00 0.00 0.00 70 1010.6
20260507184016 66 69 0.0 4.0 0.00 0.00 0.00 69 1010.5
20260507183516 67 139 1.0 3.0 0.00 0.00 0.00 63 1010.6
20260507183028 67 91 1.0 6.0 0.00 0.00 0.00 62 1010.5
20260507182516 67 77 2.0 7.0 0.00 0.00 0.00 61 1010.4
20260507182016 67 73 3.0 7.0 0.00 0.00 0.00 61 1010.3
20260507181527 68 115 1.0 6.0 0.00 0.00 0.00 61 1010.3
20260507181027 68 83 2.0 6.0 0.00 0.00 0.00 59 1010.3
20260507180528 68 148 3.0 8.0 0.00 0.00 0.00 59 1010.2
20260507180019 68 96 3.0 9.0 0.00 0.00 0.00 58 1010.3
20260507175516 69 61 4.0 9.0 0.00 0.00 0.00 58 1010.2
20260507175016 69 128 2.0 6.0 0.00 0.00 0.00 57 1010.2
20260507174527 69 98 3.0 8.0 0.00 0.00 0.00 56 1010.2
20260507174016 70 54 2.0 7.0 0.00 0.00 0.00 57 1010.2
20260507173516 71 62 3.0 7.0 0.00 0.00 0.00 56 1010.4
20260507173016 70 160 2.0 6.0 0.00 0.00 0.00 57 1010.4
20260507172516 71 69 3.0 7.0 0.00 0.00 0.00 55 1010.4
20260507172016 71 94 3.0 7.0 0.00 0.00 0.00 54 1010.5
20260507171516 71 115 2.0 7.0 0.00 0.00 0.00 56 1010.6
20260507171017 70 160 2.0 7.0 0.00 0.00 0.00 55 1010.7
20260507170516 71 127 3.0 8.0 0.00 0.00 0.00 54 1010.7
20260507170028 71 112 4.0 8.0 0.00 0.00 0.00 54 1010.7
20260507165516 72 136 3.0 7.0 0.00 0.00 0.00 54 1010.6
20260507165016 72 114 3.0 13.0 0.00 0.00 0.00 54 1010.7
20260507164517 72 144 3.0 13.0 0.00 0.00 0.00 53 1010.8
20260507164015 72 148 4.0 9.0 0.00 0.00 0.00 53 1010.7
20260507163515 72 68 3.0 8.0 0.00 0.00 0.00 54 1010.7
20260507163016 72 82 4.0 11.0 0.00 0.00 0.00 54 1010.5
20260507162516 73 58 3.0 11.0 0.00 0.00 0.00 54 1010.6
20260507162016 73 126 2.0 11.0 0.00 0.00 0.00 53 1010.7
20260507161519 72 161 2.0 11.0 0.00 0.00 0.00 54 1010.7
20260507161016 72 92 3.0 9.0 0.00 0.00 0.00 55 1010.7
20260507160516 72 343 3.0 9.0 0.00 0.00 0.00 55 1010.6
20260507160019 72 118 1.0 8.0 0.00 0.00 0.00 56 1010.6
20260507155517 71 83 4.0 8.0 0.00 0.00 0.00 54 1010.5
20260507155017 72 111 4.0 8.0 0.00 0.00 0.00 53 1010.5
20260507154516 72 152 3.0 8.0 0.00 0.00 0.00 53 1010.5
20260507154017 73 127 4.0 12.0 0.00 0.00 0.00 50 1010.4
20260507153517 74 153 6.0 12.0 0.00 0.00 0.00 50 1010.4
20260507153017 74 158 2.0 8.0 0.00 0.00 0.00 51 1010.3
20260507152516 74 122 2.0 8.0 0.00 0.00 0.00 52 1010.5
20260507152017 74 159 4.0 7.0 0.00 0.00 0.00 50 1010.3
20260507151517 74 91 3.0 7.0 0.00 0.00 0.00 50 1010.4
20260507151017 74 88 3.0 12.0 0.00 0.00 0.00 51 1010.3
20260507150518 74 120 4.0 12.0 0.00 0.00 0.00 51 1010.3
20260507150019 73 92 2.0 8.0 0.00 0.00 0.00 50 1010.2
20260507145527 74 153 3.0 6.0 0.00 0.00 0.00 50 1010.4
20260507145028 74 80 3.0 9.0 0.00 0.00 0.00 49 1010.4
20260507144517 74 150 4.0 9.0 0.00 0.00 0.00 49 1010.5
20260507144017 75 125 2.0 10.0 0.00 0.00 0.00 49 1010.7
20260507143528 75 168 5.0 10.0 0.00 0.00 0.00 49 1010.8
20260507143017 74 134 2.0 6.0 0.00 0.00 0.00 50 1010.7
20260507142517 74 110 1.0 5.0 0.00 0.00 0.00 51 1010.9
20260507142017 74 98 2.0 7.0 0.00 0.00 0.00 50 1010.9
20260507141528 74 114 3.0 11.0 0.00 0.00 0.00 49 1011.0
20260507141017 74 82 2.0 11.0 0.00 0.00 0.00 51 1011.0
20260507140517 74 111 2.0 8.0 0.00 0.00 0.00 50 1011.1
20260507140017 74 90 3.0 6.0 0.00 0.00 0.00 48 1011.1
20260507135527 74 150 3.0 6.0 0.00 0.00 0.00 50 1011.2
20260507135017 74 345 1.0 7.0 0.00 0.00 0.00 50 1011.3
20260507134517 73 103 2.0 8.0 0.00 0.00 0.00 51 1011.4
20260507134028 73 146 4.0 8.0 0.00 0.00 0.00 48 1011.5
20260507133517 73 112 3.0 7.0 0.00 0.00 0.00 50 1011.7
20260507133017 73 122 2.0 7.0 0.00 0.00 0.00 52 1011.7
20260507132518 72 115 3.0 6.0 0.00 0.00 0.00 52 1011.8
20260507132017 72 134 3.0 7.0 0.00 0.00 0.00 50 1011.8
20260507131528 72 107 4.0 9.0 0.00 0.00 0.00 53 1011.9
20260507131017 72 92 5.0 9.0 0.00 0.00 0.00 51 1012.0
20260507130517 72 165 3.0 9.0 0.00 0.00 0.00 52 1012.0
20260507130017 72 331 2.0 9.0 0.00 0.00 0.00 52 1012.1
20260507125528 71 79 4.0 8.0 0.00 0.00 0.00 52 1012.1
20260507125028 71 58 3.0 9.0 0.00 0.00 0.00 55 1012.2
20260507124517 71 200 2.0 9.0 0.00 0.00 0.00 53 1012.2
20260507124027 71 77 4.0 7.0 0.00 0.00 0.00 56 1012.3
20260507123516 71 125 3.0 6.0 0.00 0.00 0.00 53 1012.3
20260507123027 70 146 3.0 9.0 0.00 0.00 0.00 55 1012.4
20260507122516 71 96 5.0 9.0 0.00 0.00 0.00 53 1012.4
20260507122016 71 101 2.0 7.0 0.00 0.00 0.00 57 1012.5
20260507121528 71 169 3.0 9.0 0.00 0.00 0.00 54 1012.4
20260507121017 71 90 4.0 9.0 0.00 0.00 0.00 56 1012.5
20260507120517 70 157 3.0 7.0 0.00 0.00 0.00 56 1012.5
20260507120017 70 129 2.0 8.0 0.00 0.00 0.00 57 1012.6
20260507115516 70 333 2.0 6.0 0.00 0.03 0.00 58 1012.7
20260507115016 70 139 2.0 6.0 0.00 0.03 0.00 53 1012.8
20260507114528 70 89 2.0 6.0 0.00 0.03 0.00 55 1012.7
20260507114017 70 126 3.0 6.0 0.00 0.03 0.00 58 1012.8
20260507113516 70 131 1.0 8.0 0.00 0.03 0.00 58 1012.8
20260507113016 69 19 1.0 9.0 0.00 0.03 0.00 60 1012.8
20260507112516 69 134 5.0 10.0 0.00 0.03 0.00 57 1013.0
20260507112016 68 161 2.0 10.0 0.00 0.03 0.00 56 1013.0
20260507111517 68 89 3.0 8.0 0.00 0.03 0.00 57 1013.2
20260507111016 68 125 2.0 11.0 0.00 0.03 0.00 62 1013.2
20260507110516 68 132 4.0 11.0 0.00 0.03 0.00 57 1013.2
20260507110016 68 67 4.0 7.0 0.00 0.03 0.00 57 1013.2
20260507105516 68 198 1.0 8.0 0.00 0.14 0.00 61 1013.3
20260507105017 67 80 4.0 8.0 0.00 0.14 0.00 60 1013.4
20260507104516 68 79 3.0 7.0 0.00 0.14 0.00 54 1013.4
20260507104017 68 258 1.0 5.0 0.00 0.14 0.00 63 1013.4
20260507103516 67 96 2.0 10.0 0.00 0.14 0.00 59 1013.5
20260507103017 67 142 5.0 10.0 0.00 0.14 0.00 59 1013.5
20260507102517 66 60 5.0 9.0 0.00 0.14 0.00 59 1013.6
20260507102016 66 123 2.0 8.0 0.00 0.14 0.00 62 1013.6
20260507101517 67 79 4.0 8.0 0.00 0.14 0.00 60 1013.7
20260507101017 66 70 2.0 7.0 0.00 0.14 0.00 60 1013.7
20260507100527 66 155 4.0 7.0 0.00 0.14 0.00 62 1013.8
20260507100017 66 125 2.0 8.0 0.00 0.14 0.00 63 1013.8
20260507095517 66 110 3.0 8.0 0.00 0.18 0.00 65 1014.0
20260507095017 66 77 1.0 7.0 0.00 0.18 0.00 67 1013.9
20260507094516 65 125 1.0 7.0 0.00 0.18 0.00 69 1014.2
20260507094017 65 77 4.0 7.0 0.00 0.18 0.00 67 1014.2
20260507093516 65 282 1.0 6.0 0.00 0.18 0.00 70 1014.1
20260507093017 64 72 2.0 6.0 0.00 0.18 0.00 70 1014.2
20260507092517 64 127 3.0 6.0 0.00 0.18 0.00 68 1014.2
20260507092017 64 116 1.0 7.0 0.00 0.18 0.00 71 1014.2
20260507091517 63 110 3.0 7.0 0.00 0.18 0.00 70 1014.2
20260507091017 63 88 3.0 8.0 0.00 0.18 0.00 71 1014.1
20260507090017 62 89 4.0 7.0 0.00 0.18 0.00 70 1014.2
20260507085516 62 99 3.0 9.0 0.00 0.20 0.00 75 1014.1
20260507085017 62 86 3.0 9.0 0.00 0.20 0.00 72 1014.2
20260507084517 62 76 2.0 7.0 0.00 0.20 0.00 74 1014.3
20260507084017 62 129 2.0 6.0 0.00 0.20 0.00 78 1014.3
20260507083528 61 91 3.0 6.0 0.00 0.20 0.00 78 1014.4
20260507083028 61 169 3.0 6.0 0.00 0.20 0.00 79 1014.3
20260507082517 61 124 2.0 6.0 0.00 0.20 0.00 78 1014.4
20260507082017 61 141 1.0 4.0 0.00 0.20 0.00 83 1014.4
20260507081517 60 120 2.0 5.0 0.00 0.20 0.00 83 1014.5
20260507081017 59 101 2.0 5.0 0.00 0.20 0.00 83 1014.5
20260507080517 59 91 2.0 6.0 0.00 0.20 0.00 85 1014.4
20260507080017 58 94 3.0 6.0 0.00 0.20 0.00 85 1014.5
20260507075517 58 108 1.0 4.0 0.00 0.20 0.00 87 1014.5
20260507075017 58 100 0.0 3.0 0.00 0.20 0.00 88 1014.4
20260507074517 57 91 2.0 3.0 0.00 0.20 0.00 88 1014.5
20260507074017 57 150 1.0 5.0 0.00 0.20 0.00 91 1014.4
20260507073517 56 136 1.0 5.0 0.00 0.20 0.00 91 1014.5
20260507073017 55 82 2.0 5.0 0.00 0.20 0.00 92 1014.6
20260507072528 55 93 2.0 4.0 0.00 0.20 0.00 92 1014.6
20260507072017 55 86 2.0 4.0 0.00 0.20 0.00 94 1014.7
20260507071529 55 143 1.0 3.0 0.00 0.20 0.00 94 1014.6
20260507071017 54 113 0.0 1.0 0.00 0.20 0.00 95 1014.5
20260507070539 53 163 0.0 0.0 0.00 0.20 0.00 95 1014.6
20260507070017 52 163 0.0 0.0 0.00 0.20 0.00 95 1014.5
20260507065529 52 163 0.0 0.0 0.00 0.20 0.00 94 1014.5
20260507065017 52 163 0.0 0.0 0.00 0.20 0.00 95 1014.6
20260507064517 50 163 0.0 0.0 0.00 0.20 0.00 95 1014.5
20260507064017 49 163 0.0 0.0 0.00 0.20 0.00 96 1014.4
20260507063518 48 163 0.0 0.0 0.00 0.20 0.00 96 1014.4
20260507063017 47 163 0.0 0.0 0.00 0.20 0.00 96 1014.3
20260507062517 45 163 0.0 0.0 0.00 0.20 0.00 96 1014.5
20260507062018 44 163 0.0 0.0 0.00 0.20 0.00 96 1014.6
20260507061517 43 163 0.0 0.0 0.00 0.20 0.00 96 1014.7
20260507061017 42 163 0.0 0.0 0.00 0.20 0.00 96 1014.6
20260507060517 41 163 0.0 0.0 0.00 0.20 0.00 96 1014.6
20260507060017 41 163 0.0 0.0 0.00 0.20 0.00 96 1014.6
20260507055517 40 163 0.0 0.0 0.00 0.20 0.00 96 1014.5
20260507055017 40 163 0.0 0.0 0.00 0.20 0.00 95 1014.5
20260507054518 39 163 0.0 0.0 0.00 0.20 0.00 95 1014.4
20260507054017 39 163 0.0 0.0 0.00 0.20 0.00 95 1014.3
20260507053517 39 163 0.0 0.0 0.00 0.20 0.00 95 1014.4
20260507053018 38 163 0.0 0.0 0.00 0.20 0.00 95 1014.3
20260507052528 38 163 0.0 0.0 0.00 0.20 0.00 94 1014.2
20260507052017 38 163 0.0 0.0 0.00 0.20 0.00 94 1014.3
20260507051518 38 163 0.0 0.0 0.00 0.20 0.00 94 1014.3
20260507051017 38 163 0.0 0.0 0.00 0.20 0.00 94 1014.2
20260507050517 38 163 0.0 0.0 0.00 0.20 0.00 94 1014.2
20260507050017 38 163 0.0 0.0 0.00 0.20 0.00 94 1014.2
20260507045517 38 163 0.0 0.0 0.00 0.20 0.00 94 1014.2
20260507045018 38 163 0.0 0.0 0.00 0.20 0.00 94 1014.2
20260507044517 38 163 0.0 0.0 0.00 0.20 0.00 94 1014.2
20260507044017 38 163 0.0 0.0 0.00 0.20 0.00 95 1014.2
20260507043517 39 163 0.0 0.0 0.00 0.20 0.00 95 1014.2
20260507043018 38 163 0.0 0.0 0.00 0.20 0.00 94 1014.3
20260507042518 38 163 0.0 0.0 0.00 0.20 0.00 94 1014.3
20260507042017 38 163 0.0 0.0 0.00 0.20 0.00 94 1014.3
20260507041517 39 163 0.0 0.0 0.00 0.20 0.00 94 1014.4
20260507041016 39 163 0.0 0.0 0.00 0.20 0.00 94 1014.3
20260507040517 39 163 0.0 0.0 0.00 0.20 0.00 94 1014.3
20260507040017 39 163 0.0 0.0 0.00 0.20 0.00 94 1014.3
20260507035517 39 163 0.0 0.0 0.00 0.23 0.00 94 1014.3
20260507035016 39 163 0.0 0.0 0.00 0.23 0.00 94 1014.3
20260507034516 40 163 0.0 0.0 0.00 0.23 0.00 94 1014.3
20260507034017 40 163 0.0 0.0 0.00 0.23 0.00 94 1014.3
20260507033517 40 163 0.0 0.0 0.00 0.23 0.00 94 1014.3
20260507033017 40 163 0.0 0.0 0.00 0.23 0.00 94 1014.4
20260507032518 40 163 0.0 0.0 0.00 0.23 0.00 94 1014.4
20260507032017 40 163 0.0 0.0 0.00 0.23 0.00 94 1014.3
20260507031517 40 163 0.0 0.0 0.00 0.23 0.00 94 1014.3
20260507031016 40 163 0.0 0.0 0.00 0.23 0.00 94 1014.4
20260507030516 40 163 0.0 0.0 0.00 0.23 0.00 94 1014.4
20260507030028 41 163 0.0 0.0 0.00 0.23 0.00 95 1014.4
20260507025517 40 163 0.0 0.0 0.00 0.25 0.00 94 1014.4
20260507025017 40 163 0.0 0.0 0.00 0.25 0.00 94 1014.4
20260507024517 41 163 0.0 0.0 0.00 0.25 0.00 94 1014.4
20260507024029 41 163 0.0 0.0 0.00 0.25 0.00 94 1014.3
20260507023517 41 163 0.0 0.0 0.00 0.25 0.00 94 1014.4
20260507023017 41 163 0.0 0.0 0.00 0.25 0.00 94 1014.4
20260507022517 41 163 0.0 0.0 0.00 0.25 0.00 94 1014.4
20260507022018 42 163 0.0 0.0 0.00 0.25 0.00 94 1014.4
20260507021528 42 163 0.0 0.0 0.00 0.25 0.00 94 1014.4
20260507021028 42 163 0.0 0.0 0.00 0.25 0.00 94 1014.5
20260507020528 42 163 0.0 0.0 0.00 0.25 0.00 94 1014.4
20260507020029 42 163 0.0 0.0 0.00 0.25 0.00 94 1014.4
20260507015516 42 163 0.0 0.0 0.00 0.25 0.00 94 1014.4
20260507015016 42 163 0.0 0.0 0.00 0.25 0.00 94 1014.4
20260507014516 42 163 0.0 0.0 0.00 0.25 0.00 94 1014.4
20260507014017 43 163 0.0 0.0 0.00 0.25 0.00 94 1014.4
20260507013528 43 163 0.0 0.0 0.00 0.25 0.00 94 1014.4
20260507013017 43 163 0.0 0.0 0.00 0.25 0.00 93 1014.5
20260507012517 43 163 0.0 0.0 0.00 0.25 0.00 93 1014.6
20260507012029 44 163 0.0 0.0 0.00 0.25 0.00 94 1014.6
20260507011518 44 163 0.0 0.0 0.00 0.25 0.00 94 1014.6
20260507011017 44 163 0.0 0.0 0.00 0.25 0.00 94 1014.5
20260507010518 44 163 0.0 0.0 0.00 0.25 0.00 94 1014.5
20260507010018 45 163 0.0 0.0 0.00 0.25 0.00 93 1014.5
20260507005529 45 163 0.0 0.0 0.00 0.25 0.00 94 1014.6
20260507005017 45 163 0.0 0.0 0.00 0.25 0.00 94 1014.6
20260507004529 46 163 0.0 0.0 0.00 0.25 0.00 94 1014.6
20260507004028 46 163 0.0 0.0 0.00 0.25 0.00 94 1014.7
20260507003517 46 163 0.0 0.0 0.00 0.25 0.00 94 1014.8
20260507003017 46 163 0.0 0.0 0.00 0.25 0.00 94 1014.8
20260507002517 46 163 0.0 0.0 0.00 0.25 0.00 94 1014.9
20260507002017 46 163 0.0 0.0 0.00 0.25 0.00 94 1015.0
20260507001518 46 163 0.0 0.0 0.00 0.25 0.00 94 1015.0
20260507000018 45 163 0.0 0.0 0.00 0.25 0.00 94 1015.1
20260506235518 45 163 0.0 0.0 0.00 0.25 0.00 94 1015.2
20260506235019 44 163 0.0 0.0 0.00 0.25 0.00 94 1015.2
20260506234528 44 163 0.0 0.0 0.00 0.25 0.00 93 1015.1
20260506234017 44 163 0.0 0.0 0.00 0.25 0.00 93 1015.1
20260506233517 44 163 0.0 0.0 0.00 0.25 0.00 93 1015.0
20260506233018 44 163 0.0 0.0 0.00 0.25 0.00 93 1015.1
20260506232517 44 163 0.0 0.0 0.00 0.25 0.00 93 1015.1
20260506232017 44 163 0.0 0.0 0.00 0.25 0.00 93 1015.1
20260506231518 44 163 0.0 0.0 0.00 0.25 0.00 93 1015.2
20260506231017 44 163 0.0 0.0 0.00 0.25 0.00 93 1015.2
20260506230518 45 163 0.0 0.0 0.00 0.25 0.00 93 1015.2
20260506230017 45 163 0.0 0.0 0.00 0.25 0.00 93 1015.3
20260506225517 45 163 0.0 0.0 0.00 0.25 0.00 93 1015.3
20260506225040 46 163 0.0 0.0 0.00 0.25 0.00 93 1015.3
20260506224529 46 163 0.0 0.0 0.00 0.25 0.00 93 1015.3
20260506224017 46 163 0.0 0.0 0.00 0.25 0.00 93 1015.2
20260506223517 46 163 0.0 0.0 0.00 0.25 0.00 93 1015.2
20260506223017 46 163 0.0 0.0 0.00 0.25 0.00 92 1015.3
20260506222517 46 163 0.0 0.0 0.00 0.25 0.00 92 1015.2
20260506222018 46 163 0.0 0.0 0.00 0.25 0.00 92 1015.2
20260506221529 46 163 0.0 0.0 0.00 0.25 0.00 92 1015.2
20260506221017 47 163 0.0 0.0 0.00 0.25 0.00 92 1015.3
20260506220517 47 163 0.0 0.0 0.00 0.25 0.00 93 1015.3
20260506220029 47 163 0.0 0.0 0.00 0.25 0.00 93 1015.3
20260506215518 47 163 0.0 0.0 0.00 0.26 0.25 92 1015.4
20260506215017 47 163 0.0 0.0 0.00 0.26 0.25 92 1015.3
20260506214517 47 163 0.0 0.0 0.00 0.26 0.25 91 1015.3
20260506214018 47 163 0.0 0.0 0.00 0.26 0.25 91 1015.3